Location: Unspecified
(48.8656°N, 0.0000°E)
Time: 03:16:21
(UTC+00:00)

Vanguard 3 - Pass Details

Date: 23 June 2019
Orbit: 507 x 3264 km, 33.4° (Epoch: 15 July)

Event Time Altitude Azimuth Distance (km) Brightness Sun altitude
Rises 08:34:44 0° 196° (SSW) 6,927 11.9 42.2°
Reaches altitude 10° 08:43:13 10° 175° (S) 5,413 11.7 43.6°
Maximum altitude 08:49:25 14° 151° (SSE) 4,615 11.7 44.6°
Drops below altitude 10° 08:54:37 10° 126° (SE) 4,413 11.8 45.4°
Sets 08:59:57 0° 103° (ESE) 4,819 11.8 46.2°
